Regional Weather Roundup
Issued by NWS

Home | Current Version | Previous Version | Graphics & Text | Print | Product List | Glossary On
Versions: 1 2 3 4 5 6 7 8 9 10 11 12 13 14 15 16 17 18 19 20 21 22 23 24 25 26 27 28 29 30 31 32 33 34 35 36 37 38 39 40 41 42 43 44 45 46 47 48 49
000
ASUS45 KSLC 300010
RWRUT

UTAH REGIONAL WEATHER ROUNDUP
NATIONAL WEATHER SERVICE SALT LAKE CITY UT
600 PM MDT MON SEP 29 2014

UTZ001>011-023>025-300100-

NORTHERN UTAH

CITY           SKY/WX    TMP DP  RH WIND       PRES   REMARKS
HILL AFB       PTSUNNY   59  45  59 W8        29.99R
LOGAN          NOT AVBL
OGDEN          CLOUDY    60  44  55 W7        29.97S
PROVO AIRPORT  MOSUNNY   61  41  48 S9        30.01
SALT LAKE CITY PTSUNNY   59  43  55 S7        29.97S
VERNAL         MOSUNNY   57  40  52 W6        29.96S
WENDOVER       PTSUNNY   61  43  51 S9        29.98S
HEBER CITY     CLOUDY    52  37  58 SW8       30.00R
WEST JORDAN    PTSUNNY   57  45  62 S5        30.00S

$$

UTZ012>022-026-027-300100-

SOUTHERN UTAH

CITY           SKY/WX    TMP DP  RH WIND       PRES   REMARKS
BRYCE CANYON   CLOUDY    53  31  42 NW8       30.11R
CEDAR CITY     CLOUDY    59  39  47 SW7       30.03R
MILFORD        CLOUDY    59  43  55 E7        30.00S
MOAB/CYNLANDS  SUNNY     59  40  49 S3        29.97R
PRICE          PTSUNNY   56  42  59 S9        30.01R
ST GEORGE      MOCLDY    75  36  23 W12       29.95S
KANAB            N/A     64  34  32 SW8       30.05S

$$

REGIONAL REPORTS     COLORADO/ARIZONA

CITY           SKY/WX    TMP DP  RH WIND       PRES   REMARKS
CRAIG, CO      CLOUDY    52  39  61 SW6       29.99S
GRAND JUNCTION LGT RAIN  50  45  83 E8        30.01R
RIFLE          LGT RAIN  49  43  80 E9        30.03R
MONTROSE       CLOUDY    49  43  80 N7        30.07R
CORTEZ         MOSUNNY   57  36  45 W9        30.06R
PAGE, AZ       NOT AVBL
GRAND CANYON   MOSUNNY   60  34  37 VRB6      30.11R
KINGMAN        NOT AVBL
FLAGSTAFF      SUNNY     59  30  33 SW12      30.12R

$$

REGIONAL REPORTS    NEVADA/IDAHO/WYOMING

CITY           SKY/WX    TMP DP  RH WIND       PRES   REMARKS
LAS VEGAS, NV  MOSUNNY   83  34  17 VRB5      29.85F
ELY            CLOUDY    52  37  56 NW6       30.08S
ELKO           CLOUDY    52  44  74 SW8       30.05S
POCATELLO, ID  PTSUNNY   55  46  71 S5        29.97F
BURLEY         CLOUDY    53  47  79 N6        29.96R
EVANSTON, WY   CLOUDY    51  36  56 W14       30.02S
ROCK SPRINGS   PTSUNNY   49  38  65 W15       29.99R

$$



USA.gov is the U.S. government's official web portal to all federal, state and local government web resources and services.